Weather History for KANK - March, 2013

Change the Weather History Date:

Tuesday, March 5, 2013

  Actual Average (KGUC) Record (KGUC)
Temperature  
Mean Temperature 32 °F -  
Max Temperature 52 °F 34 °F 46 °F (2012)
Min Temperature 13 °F 10 °F -11 °F (1997)
Degree Days  
Heating Degree Days 32    
Moisture  
Dew Point -2 °F    
Average Humidity 26    
Maximum Humidity 66    
Minimum Humidity 7    
Precipitation  
Precipitation 0.00 in - - ()
Sea Level Pressure  
Sea Level Pressure 30.26 in    
Wind  
Wind Speed 10 mph (West)    
Max Wind Speed 22 mph    
Max Gust Speed 30 mph    
Visibility 10 miles    
Events      
Averages and records for this station are not official NWS values.
T = Trace of Precipitation, MM = Missing Value Source: NWS Daily Summary

Daily Weather History Graph

Daily Weather History Graph

Search for Another Location

Airport or City:

Trip Planner

Search our weather history database for the weather conditions in past years. The results will help you decide how hot, cold, wet, or windy it might be!

Date:

Astronomy

Mar. 05, 2013 Rise Set
Actual Time 6:30 AM MST 6:01 PM MST
Civil Twilight 6:03 AM MST 6:28 PM MST
Nautical Twilight 5:32 AM MST 6:58 PM MST
Astronomical Twilight 5:02 AM MST 7:29 PM MST
Moon 1:41 AM MST (3/5) 11:46 AM MST (3/5)
Length of Visible Light 12h 24m
Length of Day
11h 31m
Last Quarter, 40% of the Moon is Illuminated
Mar 5
Last Quarter
Mar 11
New
Mar 19
First Quarter
Mar 27
Full
Apr 2
Last Quarter

Hourly Weather History & Observations

Time (MST) Temp. Windchill Dew Point Humidity Pressure Visibility Wind Dir Wind Speed Gust Speed Precip Events Conditions
12:15 AM 19.0 °F 11.1 °F 5.2 °F 55% 30.24 in 10.0 mi West 5.8 mph - N/A   Clear
12:35 AM 16.9 °F - 5.7 °F 62% 30.25 in 10.0 mi Calm Calm - N/A   Clear
12:55 AM 17.1 °F 8.7 °F 5.0 °F 59% 30.25 in 10.0 mi West 5.8 mph - N/A   Clear
1:15 AM 18.1 °F 8.9 °F 4.5 °F 55% 30.25 in 10.0 mi West 6.9 mph - N/A   Clear
1:35 AM 18.3 °F 9.1 °F 4.6 °F 55% 30.25 in 10.0 mi NW 6.9 mph - N/A   Clear
1:55 AM 19.0 °F 12.3 °F 4.1 °F 52% 30.26 in 10.0 mi WNW 4.6 mph - N/A   Clear
2:15 AM 16.5 °F 8.1 °F 3.9 °F 58% 30.26 in 10.0 mi NW 5.8 mph - N/A   Clear
2:35 AM 13.1 °F 5.4 °F 3.7 °F 66% 30.25 in 10.0 mi West 4.6 mph - N/A   Clear
2:55 AM 18.9 °F 7.2 °F 3.2 °F 51% 30.24 in 10.0 mi NNW 10.4 mph - N/A   Clear
3:15 AM 18.5 °F 8.4 °F 2.5 °F 50% 30.24 in 10.0 mi NNW 8.1 mph - N/A   Clear
3:35 AM 19.0 °F 7.5 °F 1.9 °F 47% 30.24 in 10.0 mi NNW 10.4 mph - N/A   Clear
3:55 AM 18.5 °F 4.9 °F 1.9 °F 49% 30.25 in 10.0 mi NNW 13.8 mph - N/A   Clear
4:15 AM 18.3 °F 3.6 °F 0.9 °F 47% 30.25 in 10.0 mi NNW 16.1 mph 19.6 mph N/A   Clear
4:35 AM 18.5 °F 4.9 °F 0.1 °F 45% 30.25 in 10.0 mi NNW 13.8 mph - N/A   Clear
4:55 AM 18.3 °F 6.6 °F 0.3 °F 45% 30.27 in 10.0 mi NNW 10.4 mph - N/A   Clear
5:15 AM 17.6 °F 5.0 °F 0.5 °F 47% 30.28 in 10.0 mi NNW 11.5 mph 19.6 mph N/A   Clear
5:35 AM 17.6 °F 5.0 °F 0.3 °F 47% 30.29 in 10.0 mi NNW 11.5 mph - N/A   Clear
6:15 AM 18.0 °F 4.8 °F -1.3 °F 43% 30.30 in 10.0 mi NW 12.7 mph 16.1 mph N/A   Clear
6:35 AM 18.3 °F 5.9 °F -2.7 °F 40% 30.31 in 10.0 mi NNW 11.5 mph - N/A   Clear
6:55 AM 18.5 °F 5.5 °F -3.3 °F 38% 30.31 in 10.0 mi NNW 12.7 mph 18.4 mph N/A   Clear
7:15 AM 20.1 °F 6.4 °F -5.3 °F 33% 30.32 in 10.0 mi NNW 15.0 mph - N/A   Clear
7:35 AM 23.0 °F 10.1 °F -6.0 °F 28% 30.32 in 10.0 mi NNW 15.0 mph - N/A   Clear
7:55 AM 23.7 °F 9.7 °F -5.1 °F 28% 30.32 in 10.0 mi NW 18.4 mph - N/A   Clear
8:15 AM 24.8 °F 11.1 °F -4.2 °F 28% 30.32 in 10.0 mi NNW 18.4 mph 23.0 mph N/A   Clear
8:35 AM 26.8 °F 14.5 °F -3.3 °F 27% 30.32 in 10.0 mi NNW 16.1 mph - N/A   Clear
8:55 AM 29.1 °F 20.0 °F -3.6 °F 24% 30.33 in 10.0 mi North 10.4 mph 17.3 mph N/A   Clear
9:15 AM 31.6 °F 23.7 °F -3.1 °F 23% 30.32 in 10.0 mi NNW 9.2 mph - N/A   Clear
9:35 AM 34.7 °F 28.1 °F -3.5 °F 20% 30.32 in 10.0 mi North 8.1 mph - N/A   Clear
9:55 AM 36.7 °F 32.0 °F -3.6 °F 18% 30.32 in 10.0 mi North 5.8 mph - N/A   Clear
10:15 AM 37.8 °F 33.3 °F -6.3 °F 15% 30.31 in 10.0 mi North 5.8 mph - N/A   Clear
10:35 AM 39.6 °F 35.4 °F -7.4 °F 13% 30.31 in 10.0 mi North 5.8 mph - N/A   Clear
10:55 AM 40.8 °F 35.6 °F -7.8 °F 13% 30.30 in 10.0 mi North 8.1 mph - N/A   Clear
11:15 AM 45.1 °F 39.5 °F -8.1 °F 11% 30.29 in 10.0 mi WSW 11.5 mph 20.7 mph N/A   Clear
11:35 AM 47.3 °F - -8.9 °F 9% 30.29 in 10.0 mi SSW 13.8 mph 21.9 mph N/A   Clear
11:55 AM 47.5 °F - -9.4 °F 9% 30.27 in 10.0 mi SSW 18.4 mph 25.3 mph N/A   Clear
12:15 PM 48.2 °F - -9.8 °F 9% 30.26 in 10.0 mi SSW 19.6 mph 27.6 mph N/A   Clear
12:35 PM 49.5 °F - -9.2 °F 9% 30.25 in 10.0 mi SSW 17.3 mph 24.2 mph N/A   Clear
12:55 PM 50.4 °F - -8.3 °F 9% 30.24 in 10.0 mi SSW 15.0 mph 24.2 mph N/A   Clear
1:15 PM 51.4 °F - -8.5 °F 8% 30.24 in 10.0 mi SSW 12.7 mph 29.9 mph N/A   Clear
1:35 PM 51.8 °F - -9.4 °F 8% 30.23 in 10.0 mi SSW 19.6 mph 25.3 mph N/A   Clear
1:55 PM 51.8 °F - -9.8 °F 8% 30.22 in 10.0 mi SSW 17.3 mph 25.3 mph N/A   Clear
2:15 PM 52.3 °F - -9.8 °F 7% 30.22 in 10.0 mi SW 18.4 mph 27.6 mph N/A   Clear
2:35 PM 52.3 °F - -9.4 °F 8% 30.22 in 10.0 mi SSW 21.9 mph 27.6 mph N/A   Clear
2:55 PM 52.0 °F - -12.1 °F 7% 30.22 in 10.0 mi SSW 17.3 mph 28.8 mph N/A   Clear
3:15 PM 52.7 °F - -10.7 °F 7% 30.22 in 10.0 mi SW 19.6 mph 27.6 mph N/A   Clear
3:35 PM 52.5 °F - -8.9 °F 8% 30.22 in 10.0 mi SW 16.1 mph - N/A   Clear
3:55 PM 52.5 °F - -9.6 °F 7% 30.22 in 10.0 mi SW 17.3 mph 23.0 mph N/A   Clear
4:15 PM 51.1 °F - -7.8 °F 9% 30.22 in 10.0 mi SW 13.8 mph 17.3 mph N/A   Clear
4:35 PM 50.7 °F - -6.0 °F 9% 30.22 in 10.0 mi SW 15.0 mph 21.9 mph N/A   Clear
4:55 PM 48.4 °F - -2.6 °F 12% 30.22 in 10.0 mi SW 11.5 mph 19.6 mph N/A   Clear
5:15 PM 47.3 °F - -0.8 °F 14% 30.22 in 10.0 mi South 11.5 mph 17.3 mph N/A   Clear
5:35 PM 45.5 °F 41.3 °F 1.0 °F 16% 30.22 in 10.0 mi South 8.1 mph - N/A   Clear
5:55 PM 44.2 °F 38.8 °F 0.1 °F 16% 30.22 in 10.0 mi SSW 10.4 mph 17.3 mph N/A   Clear
6:15 PM 43.7 °F 37.7 °F 1.8 °F 18% 30.22 in 10.0 mi SSW 11.5 mph 17.3 mph N/A   Clear
6:35 PM 42.8 °F 37.5 °F 2.7 °F 19% 30.23 in 10.0 mi South 9.2 mph - N/A   Clear
6:55 PM 42.4 °F 37.5 °F 1.6 °F 18% 30.24 in 10.0 mi SW 8.1 mph - N/A   Clear
7:15 PM 41.4 °F 37.6 °F 2.1 °F 20% 30.24 in 10.0 mi SW 5.8 mph - N/A   Clear
7:35 PM 40.1 °F 33.6 °F 2.7 °F 21% 30.24 in 10.0 mi SW 10.4 mph - N/A   Clear
7:55 PM 39.4 °F 33.2 °F 4.1 °F 23% 30.24 in 10.0 mi SW 9.2 mph 16.1 mph N/A   Clear
8:15 PM 40.3 °F 33.9 °F 3.2 °F 21% 30.24 in 10.0 mi WSW 10.4 mph - N/A   Clear
8:35 PM 41.0 °F 37.1 °F 1.8 °F 19% 30.24 in 10.0 mi WSW 5.8 mph - N/A   Clear
8:55 PM 39.0 °F 32.8 °F 2.8 °F 22% 30.25 in 10.0 mi West 9.2 mph - N/A   Clear
9:15 PM 37.8 °F 31.8 °F 3.7 °F 24% 30.25 in 10.0 mi WSW 8.1 mph - N/A   Clear
9:35 PM 35.4 °F 29.7 °F 2.8 °F 25% 30.25 in 10.0 mi West 6.9 mph - N/A   Clear
9:55 PM 36.0 °F 32.1 °F 3.9 °F 26% 30.25 in 10.0 mi SW 4.6 mph - N/A   Clear
10:15 PM 36.5 °F 30.3 °F 3.2 °F 25% 30.25 in 10.0 mi WSW 8.1 mph - N/A   Clear
10:35 PM 35.4 °F 29.0 °F 3.0 °F 26% 30.24 in 10.0 mi WSW 8.1 mph - N/A   Clear
10:55 PM 36.0 °F 29.0 °F 2.1 °F 24% 30.24 in 10.0 mi WSW 9.2 mph - N/A   Clear
11:15 PM 38.1 °F 31.2 °F 1.2 °F 21% 30.24 in 10.0 mi WSW 10.4 mph - N/A   Clear
11:35 PM 37.2 °F 30.6 °F 1.4 °F 22% 30.24 in 10.0 mi WSW 9.2 mph - N/A   Clear
11:55 PM 37.6 °F 31.0 °F 1.9 °F 22% 30.24 in 10.0 mi WSW 9.2 mph - N/A   Clear